Change the Weather History Date:

Saturday, July 6, 2013

  Actual Average Record
Temperature  
Mean Temperature 80 °F 82 °F  
Max Temperature 87 °F 93 °F 104 °F (1990)
Min Temperature 72 °F 71 °F 59 °F (1964)
Degree Days  
Heating Degree Days 0 0  
Month to date heating degree days 0 0  
Since 1 June heating degree days 0 1  
Since 1 July heating degree days 0 0  
Cooling Degree Days 15 17  
Month to date cooling degree days 81 102  
Year to date cooling degree days 835 847  
Since 1 June cooling degree days 515 526  
Growing Degree Days 30 (Base 50)    
Moisture  
Dew Point 73 °F    
Average Humidity 83    
Maximum Humidity 100    
Minimum Humidity 65    
Precipitation  
Precipitation 0.04 in 0.16 in 4.16 in (1898)
Month to date precipitation 2.19 0.94  
Year to date precipitation 26.98 22.14  
Sea Level Pressure  
Sea Level Pressure 30.19 in    
Wind  
Wind Speed 6 mph (ESE)    
Max Wind Speed 21 mph    
Max Gust Speed 28 mph    
Visibility 6 miles    
Events Fog , Rain , Thunderstorm    
T = Trace of Precipitation, MM = Missing Value Source: NWS Daily Summary

Daily Weather History Graph

Daily Weather History Graph

Search for Another Location

Airport or City:

Trip Planner

Search our weather history database for the weather conditions in past years. The results will help you decide how hot, cold, wet, or windy it might be!

Date:

Astronomy

Jul. 06, 2013 Rise Set
Actual Time 6:19 AM EDT 8:38 PM EDT
Civil Twilight 5:50 AM EDT 9:07 PM EDT
Nautical Twilight 5:15 AM EDT 9:43 PM EDT
Astronomical Twilight 4:36 AM EDT 10:21 PM EDT
Moon 5:01 AM EDT (7/6) 7:21 PM EDT (7/6)
Length of Visible Light 15h 17m
Length of Day
14h 19m
Waning Crescent, 2% of the Moon is Illuminated
Jul 6
Waning Crescent
Jul 8
New
Jul 15
First Quarter
Jul 22
Full
Jul 29
Last Quarter

Hourly Weather History & Observations

Time (EDT) Temp. Heat Index Dew Point Humidity Pressure Visibility Wind Dir Wind Speed Gust Speed Precip Events Conditions
12:56 AM 73.0 °F - 72.0 °F 96% 30.20 in 10.0 mi East 4.6 mph - N/A   Mostly Cloudy
1:11 AM 71.6 °F - 71.6 °F 100% 30.21 in 0.5 mi East 4.6 mph - N/A Fog Fog
1:21 AM 71.6 °F - 71.6 °F 100% 30.20 in 0.2 mi East 4.6 mph - N/A Fog Fog
1:56 AM 72.0 °F - 72.0 °F 100% 30.19 in 0.2 mi East 4.6 mph - N/A Fog Fog
2:05 AM 71.6 °F - 71.6 °F 100% 30.20 in 0.2 mi ESE 4.6 mph - N/A Fog Fog
2:56 AM 73.0 °F - 73.0 °F 100% 30.19 in 0.2 mi East 4.6 mph - N/A Fog Fog
3:09 AM 71.6 °F - 71.6 °F 100% 30.19 in 0.2 mi East 3.5 mph - N/A Fog Fog
3:56 AM 73.0 °F - 73.0 °F 100% 30.18 in 0.2 mi Calm Calm - N/A Fog Fog
4:36 AM 71.6 °F - 71.6 °F 100% 30.18 in 0.2 mi Calm Calm - N/A Fog Fog
4:56 AM 72.0 °F - 72.0 °F 100% 30.18 in 0.2 mi ENE 3.5 mph - N/A Fog Fog
5:53 AM 71.6 °F - 71.6 °F 100% 30.19 in 0.5 mi East 4.6 mph - N/A Fog Fog
5:56 AM 72.0 °F - 72.0 °F 100% 30.19 in 0.5 mi ESE 4.6 mph - N/A Fog Fog
6:36 AM 73.4 °F - 73.4 °F 100% 30.20 in 0.1 mi ESE 3.5 mph - N/A Fog Fog
6:56 AM 73.0 °F - 73.0 °F 100% 30.20 in 0.2 mi ESE 3.5 mph - N/A Fog Fog
7:53 AM 73.4 °F - 73.4 °F 100% 30.22 in 0.5 mi ESE 4.6 mph - 0.00 in Rain Light Rain
7:56 AM 73.0 °F - 73.0 °F 100% 30.21 in 0.5 mi East 4.6 mph - 0.00 in Rain Light Rain
8:12 AM 73.4 °F - 73.4 °F 100% 30.22 in 2.0 mi East 3.5 mph - 0.00 in   Overcast
8:46 AM 73.4 °F - 73.4 °F 100% 30.23 in 2.0 mi Calm Calm - 0.00 in   Overcast
8:53 AM 73.4 °F - 73.4 °F 100% 30.22 in 10.0 mi Calm Calm - 0.00 in   Overcast
8:56 AM 75.0 °F - 73.9 °F 96% 30.22 in 10.0 mi Calm Calm - 0.00 in   Overcast
9:16 AM 75.2 °F - 73.4 °F 94% 30.22 in 10.0 mi ESE 4.6 mph - N/A   Overcast
9:26 AM 75.2 °F - 73.4 °F 94% 30.22 in 10.0 mi Calm Calm - N/A   Mostly Cloudy
9:41 AM 78.8 °F - 73.4 °F 83% 30.22 in 10.0 mi ESE 3.5 mph - N/A   Mostly Cloudy
9:56 AM 78.1 °F - 73.9 °F 87% 30.21 in 10.0 mi Calm Calm - N/A   Mostly Cloudy
10:48 AM 80.6 °F 86.2 °F 75.2 °F 84% 30.22 in 10.0 mi Calm Calm - 0.00 in   Mostly Cloudy
10:56 AM 81.0 °F 86.7 °F 75.0 °F 82% 30.21 in 10.0 mi Variable 3.5 mph - 0.00 in   Mostly Cloudy
11:56 AM 82.9 °F 89.4 °F 73.9 °F 74% 30.20 in 10.0 mi SSE 5.8 mph - N/A   Mostly Cloudy
12:56 PM 84.0 °F 91.2 °F 73.9 °F 72% 30.18 in 10.0 mi SE 5.8 mph - N/A   Mostly Cloudy
1:31 PM 84.2 °F 89.6 °F 71.6 °F 66% 30.18 in 10.0 mi ESE 5.8 mph - N/A   Mostly Cloudy
1:56 PM 86.0 °F 93.8 °F 73.9 °F 67% 30.17 in 10.0 mi East 10.4 mph - N/A   Mostly Cloudy
2:41 PM 86.0 °F 91.8 °F 71.6 °F 62% 30.17 in 10.0 mi SE 9.2 mph - N/A Thunderstorm Thunderstorm
2:56 PM 79.0 °F - 75.0 °F 88% 30.17 in 4.0 mi South 16.1 mph 27.6 mph 0.01 in Rain , Thunderstorm Thunderstorms and Rain
3:14 PM 78.8 °F - 75.2 °F 89% 30.17 in 4.0 mi South 8.1 mph - 0.02 in Rain Light Rain
3:56 PM 81.0 °F 86.7 °F 75.0 °F 82% 30.14 in 10.0 mi ESE 6.9 mph - 0.02 in   Mostly Cloudy
4:56 PM 82.4 °F 88.2 °F 73.4 °F 74% 30.12 in 10.0 mi East 8.1 mph - N/A   Mostly Cloudy
5:56 PM 80.1 °F 85.4 °F 75.9 °F 87% 30.13 in 10.0 mi East 10.4 mph - 0.00 in   Mostly Cloudy
6:56 PM 81.0 °F 86.2 °F 73.9 °F 79% 30.13 in 10.0 mi East 12.7 mph - N/A   Mostly Cloudy
7:38 PM 82.4 °F 87.2 °F 71.6 °F 70% 30.15 in 10.0 mi SSE 18.4 mph 23.0 mph N/A Thunderstorm Thunderstorm
7:56 PM 78.1 °F - 75.0 °F 90% 30.14 in 6.0 mi SSW 8.1 mph 23.0 mph 0.01 in Rain , Thunderstorm Light Thunderstorms and Rain
8:23 PM 77.0 °F - 75.2 °F 94% 30.15 in 10.0 mi South 4.6 mph - 0.00 in   Mostly Cloudy
8:56 PM 77.0 °F - 73.9 °F 90% 30.15 in 10.0 mi SSE 3.5 mph - 0.00 in   Mostly Cloudy
9:56 PM 77.0 °F - 75.0 °F 94% 30.16 in 10.0 mi East 5.8 mph - N/A   Overcast
10:56 PM 75.9 °F - 75.0 °F 97% 30.17 in 10.0 mi East 6.9 mph - N/A   Partly Cloudy
11:56 PM 75.0 °F - 75.0 °F 100% 30.18 in 10.0 mi ESE 3.5 mph - N/A   Mostly Cloudy